Location: Franzen
(48.6167°N, 15.3833°E)
Time: 13:02:11
(UTC+00:00)

NOSS 3-1 (C) - Pass Details

Date: 22 April 2021
Orbit: 732 x 1476 km, 63.4° (Epoch: 18 April)

Event Time Altitude Azimuth Distance (km) Brightness Sun altitude
Rises 21:07:44 0° 317° (NW) 3,924 8.0 -24.3°
Reaches altitude 10° 21:10:15 10° 315° (NW) 3,063 7.1 -24.5°
Maximum altitude 21:17:38 65° 236° (SW) 1,421 4.2 -25.1°
Enters shadow 21:20:23 44° 175° (S) 1,794 4.4 -25.3°
